Location: Usti nad Labem
(50.6670°N, 14.0330°E)
Time: 17:36:03
(UTC+01:00)

ISS - Visible Passes

Search period start: 22 November 2014 00:00
Search period end: 02 December 2014 00:00
Orbit: 408 x 417 km, 51.6° (Epoch: 22 November)

Date Brightness Start Highest point End Pass type
(mag) Time Alt. Az. Time Alt. Az. Time Alt. Az.
22 Nov -0.3 04:23:08 17° E 04:23:08 17° E 04:23:59 10° E visible
22 Nov -3.3 05:55:57 31° W 05:57:23 71° SSW 06:00:41 10° ESE visible
23 Nov -2.7 05:08:21 57° ESE 05:08:21 57° ESE 05:11:03 10° ESE visible
23 Nov -1.9 06:41:15 10° W 06:44:09 28° SSW 06:47:03 10° SSE visible
24 Nov -0.1 04:20:43 15° E 04:20:43 15° E 04:21:19 10° E visible
24 Nov -2.6 05:53:32 31° WSW 05:54:34 41° SSW 05:57:42 10° SE visible
25 Nov -2.0 05:05:53 37° SE 05:05:53 37° SE 05:08:08 10° ESE visible
25 Nov -1.1 06:39:05 10° WSW 06:41:01 15° SW 06:42:57 10° S visible
26 Nov 0.1 04:18:15 11° ESE 04:18:15 11° ESE 04:18:24 10° ESE visible
26 Nov -1.7 05:51:04 22° SW 05:51:24 22° SW 05:54:02 10° SSE visible
27 Nov -1.0 05:03:26 19° SSE 05:03:26 19° SSE 05:04:41 10° SE visible
28 Nov -0.7 05:48:39 10° SSW 05:48:39 10° SSW 05:48:51 10° SSW visible
